weather.gov     
National Weather Service

Regional Weather Roundup
NWS Homepage
This page is being discontinued on March 12, 2014.
The same data is available at this site. Please update your bookmarks.
Thank you, and we apologize for the inconvenience.
Please send an email to SR-SRH.Webmaster@noaa.gov with any concerns.


Current Version
Previous Version:    01  02  03  04  05  06  07  08  09  10  11  12  13  
[Printable]
838
ASUS44 KLCH 021710
RWRLCH
RWRLCH
REGIONAL WEATHER ROUNDUP
NATIONAL WEATHER SERVICE LAKE CHARLES LA
1200 PM CDT TUE SEP 02 2014

Note: "fair" indicates few or no clouds below 12,000 feet with no
significant weather and/or obstructions to visibility.


ACROSS SOUTHEAST TEXAS

CITY           SKY/WX    TMP DP  RH WIND       PRES   REMARKS
BEAUMONT       PTSUNNY   89  76  65 S15       30.02R HX 100
BEAUMONT CITY  PTSUNNY   90  77  66 S12G17    30.03R HX 102
ORANGE         MOSUNNY   89  75  63 S10       30.05R
JASPER         RAIN      75  71  89 E5        30.10R
$$

ACROSS CENTRAL LOUISIANA

CITY           SKY/WX    TMP DP  RH WIND       PRES   REMARKS
LEESVILLE      PTSUNNY   88  73  62 S10       30.05R
FULLERTON      PTSUNNY   90  74  59 S8        30.02S
ALEXANDRIA INT CLOUDY    90  74  59 S7        30.03S
ESLER FIELD    MOSUNNY   88  76  67 VRB3      30.05S
DERIDDER         N/A     84  76  77 CALM      30.07R HAZE
OAKDALE        CLOUDY    90  77  67 SE6       30.05R HX 103
OPELOUSAS      CLOUDY    79  74  86 SW8G17    30.06R THUNDER
$$

ACROSS SOUTHWEST AND SOUTH CENTRAL LOUISIANA

CITY           SKY/WX    TMP DP  RH WIND       PRES   REMARKS
SULPHUR        PTSUNNY   89  75  63 SE9G18    30.05R
LAKE CHARLES   MOSUNNY   88  75  65 S10       30.04R
CHENNAULT INT  MOSUNNY   88  72  58 S9        30.05R
CAMERON PHI    MOSUNNY   86  79  79 S12       30.04S
DEQUINCY         N/A     84  76  76 S7        30.04S
JENNINGS       PTSUNNY   88  78  70 S10       30.05S HX 101
LAFAYETTE      MOSUNNY   89  75  63 S16G22    30.05S
NEW IBERIA     PTSUNNY   88  77  69 SW13      30.06S HX 100
ABBEVILLE      PTSUNNY   88  76  68 SE16      30.05S
PATTERSON      PTSUNNY   90  75  62 S12       30.09S HX 100
SALT POINT       N/A     91  79  67 VRB7      30.05F HX 107
$$

SELECTED SITES ACROSS THE REGION

CITY           SKY/WX    TMP DP  RH WIND       PRES   REMARKS
HOUSTON BUSH   MOSUNNY   91  73  55 S12       29.99S HX 100
HOUSTON HOBBY  MOSUNNY   90  74  59 S14       29.99R
GALVESTON      MOSUNNY   90  77  65 SE18      30.01R HX 103
COLLEGE STAT   MOSUNNY   91  73  55 S14       29.98F
CONROE         PTSUNNY   88  73  61 S14       30.00S
HUNTSVILLE     PTSUNNY   89  72  56 S6        30.00S
LUFKIN         MOSUNNY   90  74  59 S6        30.02R
SHREVEPORT     LGT RAIN  84  72  67 W3        30.04S
MONROE         PTSUNNY   85  74  69 W6        30.06F
NATCHEZ MS     PTSUNNY   88  75  66 SW9       30.08S
BATON ROUGE    MOSUNNY   91  73  55 SE9       30.06F
N.O. INTL ARPT PTSUNNY   89  75  63 S7        30.07S
SLIDELL        PTSUNNY   87  74  64 VRB3      30.07S
$$

MARINE REPORTS

STATION/POSITION TIME  TEMP    WIND        PRES    VSBY  WAVE
                       AIR SEA DIR/SP/G                  HT/PER
                 (UTC) (F)     (DEG/KT/KT) (MB)    (MI)  (FT/S)
BUOY 30 S HIGH I 1700   85 85  150/ 16/ 17 1015.6F         4/ 7
SEA RIM ST PARK  1700   86     160/ 12/ 13 1017.2R
PORT ARTHUR      1700      85  160/  7/ 13 1017.0R
SABINE PASS N    1700   87 85  170/ 11/ 18 1016.8R
TEXAS POINT      1700   85 84  160/ 15/ 17 1016.9R
CALCASIEU PASS   1700   85 84  180/ 12/ 14 1018.2R
LK CHARLES BEACH 1700   89 83              1018.1R
MARSH ISLAND     NOT AVBL
FRESH WATER LOCK 1700   85 84  150/ 13/ 16 1017.3F
AMERADA PASS     1700   87 86  170/  5/ 11 1017.9S
$$




U.S. Dept. of Commerce
NOAA National Weather Service
1325 East West Highway
Silver Spring, MD 20910
E-mail: w-nws.webmaster@noaa.gov
Page last modified: May 16, 2007
NATIONAL WEATHER SERVICE: for Safety, for Work, for Fun - FOR LIFE